Location: Edinburgh
(55.9500°N, 3.1600°W)
Time: 17:54:10
(UTC+01:00)

ESTCUBE 1 - Visible Passes

Search period start: 28 May 2024 00:00
Search period end: 07 June 2024 00:00
Orbit: 635 x 646 km, 97.8° (Epoch: 28 May)

Date Brightness Start Highest point End Pass type
(mag) Time Alt. Az. Time Alt. Az. Time Alt. Az.
28 May ? 22:32:04 10° S 22:36:30 75° WSW 22:41:01 10° NNW visible
29 May ? 00:11:51 10° WSW 00:13:52 13° W 00:15:53 10° WNW visible
29 May ? 22:56:01 10° S 23:00:19 47° W 23:04:40 10° NNW visible
30 May ? 23:20:15 10° SSW 23:24:12 31° W 23:28:12 10° NNW visible
31 May ? 23:44:51 10° SW 23:48:09 20° W 23:51:30 10° NW visible
02 Jun ? 00:10:04 10° WSW 00:12:12 13° W 00:14:20 10° NW visible
02 Jun ? 22:54:19 10° S 22:58:39 49° W 23:03:01 10° NNW visible
03 Jun ? 23:18:31 10° SSW 23:22:30 31° W 23:26:31 10° NNW visible
04 Jun ? 23:43:04 10° SW 23:46:26 21° W 23:49:50 10° NW visible
06 Jun ? 00:08:13 10° WSW 00:10:27 14° W 00:12:43 10° NW visible
06 Jun ? 22:52:33 10° S 22:56:54 50° W 23:01:17 10° NNW visible
